User: anonymous   Login
Location: Unspecified
(0.0000°N, 0.0000°E)
Time: 10:38:13
(UTC+00:00)
Language:

deb Explorer IX - Orbit

View from above orbital plane
View from above orbital plane
View from above satellite
View from above satellite

Ground track
Ground track

The orbit data is extracted from the following two-line orbital elements,

1 00085U 61004C   15088.04052383  .00032517  00000-0  76937-2 0  9993
2 00085 038.7738 342.2430 0422358 096.4460 268.4539 14.10820794660344
Epoch (UTC): 29 March 2015 00:58:21
Eccentricity: 0.0422358
inclination: 38.7738°
perigee height: 551 km
apogee height: 1162 km
right ascension of ascending node: 342.2430°
argument of perigee: 96.4460°
revolutions per day: 14.10820794
mean anomaly at epoch: 268.4539°
orbit number at epoch: 66034

The dashed part of the orbit path shows where the satellite is in the earth's shadow,  

DLR